N176AR KDPA-KPWK

Flight info

Callsign N176AR
Flight time 0h 27m
Altitude 3500
Route VFR
Aircraft BE36/L-SDE3/G

Departure

Time 2026-04-26 04:22
Airport Dupage Airport (KDPA)

Arrival

Time 2026-04-26 04:49
Airport Chicago Executive Airport (KPWK)
Time Latitude Longitude Altitude Speed Heading
2026-04-26 04:15 41.90724 -88.25307 756 ft 0 kts 263°
2026-04-26 04:19 41.90718 -88.25320 755 ft 6 kts 206°
2026-04-26 04:19 41.90684 -88.25243 757 ft 15 kts 93°
2026-04-26 04:20 41.90677 -88.25101 757 ft 17 kts 90°
2026-04-26 04:20 41.90676 -88.25030 757 ft 0 kts 90°
2026-04-26 04:21 41.90675 -88.25018 757 ft 4 kts 98°
2026-04-26 04:21 41.90656 -88.24955 756 ft 10 kts 143°
2026-04-26 04:21 41.90549 -88.24972 757 ft 39 kts 193°
2026-04-26 04:21 41.89986 -88.25161 822 ft 113 kts 194°
2026-04-26 04:22 41.89163 -88.25466 1150 ft 134 kts 189°
2026-04-26 04:22 41.88214 -88.25690 1438 ft 147 kts 184°
2026-04-26 04:22 41.87166 -88.25914 1697 ft 156 kts 182°
2026-04-26 04:22 41.86077 -88.26146 1931 ft 160 kts 181°
2026-04-26 04:23 41.84964 -88.26375 2147 ft 162 kts 180°
2026-04-26 04:23 41.83860 -88.26589 2355 ft 161 kts 178°
2026-04-26 04:23 41.82893 -88.26133 2558 ft 145 kts 126°
2026-04-26 04:23 41.82489 -88.24941 2781 ft 140 kts 103°
2026-04-26 04:24 41.82480 -88.23648 2973 ft 140 kts 78°
2026-04-26 04:24 41.82939 -88.22492 3179 ft 145 kts 52°
2026-04-26 04:24 41.83741 -88.21639 3383 ft 148 kts 42°
2026-04-26 04:24 41.84550 -88.20791 3498 ft 153 kts 44°
2026-04-26 04:25 41.85389 -88.19857 3504 ft 159 kts 45°
2026-04-26 04:25 41.86239 -88.18900 3508 ft 158 kts 45°
2026-04-26 04:25 41.87039 -88.17991 3502 ft 142 kts 46°
2026-04-26 04:25 41.87782 -88.17151 3493 ft 136 kts 46°
2026-04-26 04:26 41.88480 -88.16359 3492 ft 127 kts 46°
2026-04-26 04:26 41.89143 -88.15605 3492 ft 123 kts 46°
2026-04-26 04:26 41.89780 -88.14881 3493 ft 120 kts 46°
2026-04-26 04:26 41.90417 -88.14154 3493 ft 119 kts 47°
2026-04-26 04:27 41.91064 -88.13416 3498 ft 124 kts 46°
2026-04-26 04:27 41.91738 -88.12649 3506 ft 129 kts 46°
2026-04-26 04:27 41.92429 -88.11862 3521 ft 132 kts 46°
2026-04-26 04:27 41.93130 -88.11064 3520 ft 134 kts 46°
2026-04-26 04:28 41.93846 -88.10249 3520 ft 136 kts 46°
2026-04-26 04:28 41.94570 -88.09426 3520 ft 136 kts 46°
2026-04-26 04:28 41.95296 -88.08599 3520 ft 137 kts 46°
2026-04-26 04:28 41.96029 -88.07765 3517 ft 139 kts 46°
2026-04-26 04:29 41.96761 -88.06930 3516 ft 137 kts 46°
2026-04-26 04:29 41.97484 -88.06106 3517 ft 138 kts 46°
2026-04-26 04:29 41.98219 -88.05268 3514 ft 138 kts 46°
2026-04-26 04:29 41.98948 -88.04434 3517 ft 137 kts 46°
2026-04-26 04:30 41.99676 -88.03604 3514 ft 138 kts 46°
2026-04-26 04:30 42.00406 -88.02773 3513 ft 137 kts 45°
2026-04-26 04:30 42.01135 -88.01942 3513 ft 137 kts 46°
2026-04-26 04:30 42.01865 -88.01108 3514 ft 137 kts 46°
2026-04-26 04:31 42.02581 -88.00290 3513 ft 137 kts 46°
2026-04-26 04:31 42.03405 -87.99650 3505 ft 146 kts 13°
2026-04-26 04:31 42.04427 -87.99977 3507 ft 155 kts 345°
2026-04-26 04:31 42.05395 -88.00668 3520 ft 159 kts 337°
2026-04-26 04:32 42.06266 -88.01606 3514 ft 168 kts 304°
2026-04-26 04:32 42.06440 -88.03159 3516 ft 171 kts 265°
2026-04-26 04:32 42.06356 -88.04763 3522 ft 173 kts 266°
2026-04-26 04:32 42.06286 -88.06379 3522 ft 172 kts 266°
2026-04-26 04:33 42.06213 -88.07973 3523 ft 173 kts 266°
2026-04-26 04:33 42.06136 -88.09594 3522 ft 173 kts 266°
2026-04-26 04:33 42.06063 -88.11204 3521 ft 172 kts 266°
2026-04-26 04:33 42.05990 -88.12806 3511 ft 171 kts 266°
2026-04-26 04:34 42.06172 -88.14357 3499 ft 169 kts 306°
2026-04-26 04:34 42.07047 -88.15332 3498 ft 160 kts 342°
2026-04-26 04:34 42.08094 -88.15592 3500 ft 150 kts
2026-04-26 04:34 42.09141 -88.15611 3504 ft 151 kts
2026-04-26 04:35 42.10192 -88.15673 3507 ft 151 kts
2026-04-26 04:35 42.11228 -88.15747 3508 ft 151 kts
2026-04-26 04:35 42.12277 -88.15826 3508 ft 150 kts
2026-04-26 04:35 42.13327 -88.15905 3508 ft 150 kts
2026-04-26 04:36 42.14371 -88.15986 3508 ft 150 kts
2026-04-26 04:36 42.15402 -88.16066 3509 ft 152 kts
2026-04-26 04:36 42.16497 -88.16146 3480 ft 164 kts
2026-04-26 04:36 42.17693 -88.16232 3295 ft 177 kts
2026-04-26 04:37 42.18946 -88.16333 3109 ft 183 kts
2026-04-26 04:37 42.20234 -88.16436 2918 ft 187 kts
2026-04-26 04:37 42.21543 -88.16539 2722 ft 188 kts
2026-04-26 04:37 42.22835 -88.16639 2538 ft 180 kts
2026-04-26 04:38 42.24004 -88.16726 2516 ft 161 kts
2026-04-26 04:38 42.24992 -88.16360 2510 ft 139 kts 39°
2026-04-26 04:38 42.25624 -88.15471 2513 ft 127 kts 65°
2026-04-26 04:38 42.25957 -88.14369 2514 ft 125 kts 71°
2026-04-26 04:39 42.26283 -88.13288 2515 ft 123 kts 72°
2026-04-26 04:39 42.26589 -88.12237 2505 ft 121 kts 72°
2026-04-26 04:39 42.26899 -88.11179 2508 ft 120 kts 72°
2026-04-26 04:39 42.27208 -88.10126 2507 ft 121 kts 72°
2026-04-26 04:40 42.27517 -88.09071 2501 ft 120 kts 71°
2026-04-26 04:40 42.27825 -88.08020 2503 ft 120 kts 72°
2026-04-26 04:40 42.28132 -88.06971 2509 ft 120 kts 71°
2026-04-26 04:40 42.28435 -88.05935 2507 ft 120 kts 72°
2026-04-26 04:41 42.28742 -88.04884 2502 ft 120 kts 72°
2026-04-26 04:41 42.29050 -88.03836 2501 ft 120 kts 72°
2026-04-26 04:41 42.29354 -88.02793 2508 ft 120 kts 71°
2026-04-26 04:41 42.29661 -88.01745 2503 ft 120 kts 71°
2026-04-26 04:42 42.29858 -88.00666 2504 ft 119 kts 97°
2026-04-26 04:42 42.29401 -87.99725 2516 ft 129 kts 141°
2026-04-26 04:42 42.28558 -87.99266 2505 ft 129 kts 153°
2026-04-26 04:42 42.27737 -87.98836 2504 ft 124 kts 152°
2026-04-26 04:43 42.26947 -87.98423 2495 ft 119 kts 152°
2026-04-26 04:43 42.26212 -87.98035 2498 ft 112 kts 151°
2026-04-26 04:43 42.25495 -87.97654 2501 ft 109 kts 151°
2026-04-26 04:43 42.24800 -87.97289 2509 ft 102 kts 151°
2026-04-26 04:44 42.24175 -87.96958 2502 ft 94 kts 149°
2026-04-26 04:44 42.23570 -87.96639 2496 ft 94 kts 150°
2026-04-26 04:44 42.22993 -87.96335 2498 ft 85 kts 149°
2026-04-26 04:44 42.22465 -87.96057 2498 ft 80 kts 148°
2026-04-26 04:45 42.21956 -87.95786 2492 ft 79 kts 148°
2026-04-26 04:45 42.21427 -87.95504 2506 ft 86 kts 150°
2026-04-26 04:45 42.20838 -87.95190 2478 ft 94 kts 149°
2026-04-26 04:45 42.20202 -87.94852 2370 ft 101 kts 150°
2026-04-26 04:46 42.19519 -87.94484 2227 ft 109 kts 150°
2026-04-26 04:46 42.18781 -87.94094 2083 ft 118 kts 151°
2026-04-26 04:46 42.18003 -87.93696 1930 ft 119 kts 152°
2026-04-26 04:46 42.17267 -87.93317 1765 ft 109 kts 152°
2026-04-26 04:47 42.16633 -87.92988 1598 ft 87 kts 148°
2026-04-26 04:47 42.16108 -87.92707 1457 ft 78 kts 152°
2026-04-26 04:47 42.15615 -87.92439 1348 ft 74 kts 152°
2026-04-26 04:47 42.15126 -87.92176 1261 ft 78 kts 154°
2026-04-26 04:48 42.14047 -87.91605 1037 ft 89 kts 156°
2026-04-26 04:48 42.13451 -87.91297 925 ft 92 kts 155°
2026-04-26 04:48 42.12855 -87.90994 803 ft 90 kts 154°
2026-04-26 04:49 42.12277 -87.90684 680 ft 85 kts 156°
2026-04-26 04:49 42.11843 -87.90458 642 ft 37 kts 158°
2026-04-26 04:49 42.11690 -87.90365 641 ft 13 kts 132°
2026-04-26 04:49 42.11684 -87.90277 642 ft 6 kts 73°
2026-04-26 04:50 42.11685 -87.90272 642 ft 0 kts 74°
2026-04-26 04:50 42.11687 -87.90267 643 ft 3 kts 74°
2026-04-26 04:50 42.11703 -87.90207 644 ft 11 kts 68°
2026-04-26 04:50 42.11725 -87.90090 644 ft 14 kts 121°
2026-04-26 04:51 42.11659 -87.90086 643 ft 0 kts 225°